Вернуться в каталог

STARLINK-36194

АктивенСвязьVLEO
NORAD 67130·PAYLOAD·🇺🇸 United States

Запущен Dec 15, 2025 с Cape Canaveral Space Force Station

Loading…

Ближайшие Пролёты (ближайшие 24 часа)

TLE

СвежийSource: CelesTrak SupGP

Эпоха: Sep 14, 2026, 14:31 UTC

1 67130C 25299AE  26257.60534722  .00013657  00000+0  49481-3 0  2572
2 67130  43.0030 182.0342 0001190 263.5307 294.1083 15.27561383    15

Отслеживайте STARLINK-36194 в реальном времени с AllMySat

Download on the App Store